International Skating Union - Official Site

Essent ISU World Cup Astana
November 30, December 1-2, 2013

Draw | Lap Times | Index | World Cup

Referee: Jan  AUGUSTINUS  (NED)
Starter: Sung-Yeol  JAEGAL  (KOR)
StartTime: EndTime: Air Temp: Ice Temp: Humidity:
16:15 17:59 18℃ -5.7℃ 35.8%
Result 10000m Men Division A
Rankings as of Dec 1 2013 6:04PM
Rank: No.: Name: Nation: Time: Behind: Points:
1 172 Sven  Kramer NED NED 13:02.38400m - 36.31 - (36.3)
800m - 1:08.05 - (31.7)
1200m - 1:40.23 - (32.1)
1600m - 2:11.77 - (31.5)
2000m - 2:43.27 - (31.5)
2400m - 3:14.31 - (31.0)
2800m - 3:45.80 - (31.4)
3200m - 4:16.87 - (31.0)
3600m - 4:48.48 - (31.6)
4000m - 5:19.71 - (31.2)
4400m - 5:50.86 - (31.1)
4800m - 6:21.55 - (30.6)
5200m - 6:52.80 - (31.2)
5600m - 7:23.70 - (30.9)
6000m - 7:54.88 - (31.1)
6400m - 8:26.29 - (31.4)
6800m - 8:57.69 - (31.4)
7200m - 9:28.35 - (30.6)
7600m - 9:58.82 - (30.4)
8000m - 10:29.23 - (30.4)
8400m - 10:59.92 - (30.6)
8800m - 11:30.64 - (30.7)
9200m - 12:01.55 - (30.9)
9600m - 12:32.09 - (30.5)
10000m - 13:02.38 - (30.2)
100
2 120 Alexis  Contin FRA FRA 13:14.64400m - 35.98 - (35.9)
800m - 1:08.47 - (32.4)
1200m - 1:41.43 - (32.9)
1600m - 2:13.80 - (32.3)
2000m - 2:45.70 - (31.9)
2400m - 3:16.99 - (31.2)
2800m - 3:48.31 - (31.3)
3200m - 4:19.52 - (31.2)
3600m - 4:51.10 - (31.5)
4000m - 5:22.58 - (31.4)
4400m - 5:54.33 - (31.7)
4800m - 6:25.69 - (31.3)
5200m - 6:56.85 - (31.1)
5600m - 7:28.13 - (31.2)
6000m - 7:59.41 - (31.2)
6400m - 8:30.66 - (31.2)
6800m - 9:01.95 - (31.2)
7200m - 9:33.25 - (31.3)
7600m - 10:04.67 - (31.4)
8000m - 10:36.03 - (31.3)
8400m - 11:07.48 - (31.4)
8800m - 11:38.97 - (31.4)
9200m - 12:10.71 - (31.7)
9600m - 12:42.39 - (31.6)
10000m - 13:14.64 - (32.2)
12.26 80
3 124 Patrick  Beckert GER GER 13:18.73400m - 35.00 - (35.0)
800m - 1:06.84 - (31.8)
1200m - 1:39.05 - (32.2)
1600m - 2:11.07 - (32.0)
2000m - 2:43.20 - (32.1)
2400m - 3:14.89 - (31.6)
2800m - 3:47.11 - (32.2)
3200m - 4:18.97 - (31.8)
3600m - 4:50.84 - (31.8)
4000m - 5:22.62 - (31.7)
4400m - 5:54.50 - (31.8)
4800m - 6:26.27 - (31.7)
5200m - 6:58.12 - (31.8)
5600m - 7:29.90 - (31.7)
6000m - 8:01.78 - (31.8)
6400m - 8:33.61 - (31.8)
6800m - 9:05.42 - (31.8)
7200m - 9:37.11 - (31.6)
7600m - 10:09.06 - (31.9)
8000m - 10:41.21 - (32.1)
8400m - 11:13.42 - (32.2)
8800m - 11:45.55 - (32.1)
9200m - 12:17.53 - (31.9)
9600m - 12:48.54 - (31.0)
10000m - 13:18.73 - (30.1)
16.35 70
4 104 Bart  Swings BEL BEL 13:19.27400m - 35.20 - (35.2)
800m - 1:07.15 - (31.9)
1200m - 1:39.25 - (32.1)
1600m - 2:11.36 - (32.1)
2000m - 2:42.99 - (31.6)
2400m - 3:15.20 - (32.2)
2800m - 3:47.17 - (31.9)
3200m - 4:19.29 - (32.1)
3600m - 4:50.96 - (31.6)
4000m - 5:22.73 - (31.7)
4400m - 5:54.45 - (31.7)
4800m - 6:26.37 - (31.9)
5200m - 6:58.13 - (31.7)
5600m - 7:30.19 - (32.0)
6000m - 8:01.82 - (31.6)
6400m - 8:33.66 - (31.8)
6800m - 9:05.13 - (31.4)
7200m - 9:36.82 - (31.6)
7600m - 10:08.15 - (31.3)
8000m - 10:40.05 - (31.9)
8400m - 11:12.23 - (32.1)
8800m - 11:44.36 - (32.1)
9200m - 12:16.44 - (32.0)
9600m - 12:48.27 - (31.8)
10000m - 13:19.27 - (31.0)
16.89 60
5 162 Seung-Hoon  Lee KOR KOR 13:20.94400m - 36.02 - (36.0)
800m - 1:07.56 - (31.5)
1200m - 1:39.43 - (31.8)
1600m - 2:11.16 - (31.7)
2000m - 2:42.63 - (31.4)
2400m - 3:14.03 - (31.4)
2800m - 3:45.15 - (31.1)
3200m - 4:16.66 - (31.5)
3600m - 4:47.71 - (31.0)
4000m - 5:19.15 - (31.4)
4400m - 5:50.45 - (31.3)
4800m - 6:21.70 - (31.2)
5200m - 6:52.72 - (31.0)
5600m - 7:24.16 - (31.4)
6000m - 7:55.56 - (31.4)
6400m - 8:27.73 - (32.1)
6800m - 8:59.12 - (31.3)
7200m - 9:30.55 - (31.4)
7600m - 10:01.93 - (31.3)
8000m - 10:33.56 - (31.6)
8400m - 11:05.60 - (32.0)
8800m - 11:38.08 - (32.4)
9200m - 12:11.41 - (33.3)
9600m - 12:45.85 - (34.4)
10000m - 13:20.94 - (35.0)
18.56 50
6 216 Jonathan  Kuck USA USA 13:23.54400m - 35.14 - (35.1)
800m - 1:06.95 - (31.8)
1200m - 1:39.40 - (32.4)
1600m - 2:11.37 - (31.9)
2000m - 2:43.60 - (32.2)
2400m - 3:15.51 - (31.9)
2800m - 3:47.89 - (32.3)
3200m - 4:19.82 - (31.9)
3600m - 4:52.25 - (32.4)
4000m - 5:24.57 - (32.3)
4400m - 5:56.89 - (32.3)
4800m - 6:28.63 - (31.7)
5200m - 7:00.84 - (32.2)
5600m - 7:32.73 - (31.8)
6000m - 8:04.47 - (31.7)
6400m - 8:36.12 - (31.6)
6800m - 9:07.76 - (31.6)
7200m - 9:39.33 - (31.5)
7600m - 10:11.19 - (31.8)
8000m - 10:42.91 - (31.7)
8400m - 11:14.94 - (32.0)
8800m - 11:47.01 - (32.0)
9200m - 12:19.16 - (32.1)
9600m - 12:51.20 - (32.0)
10000m - 13:23.54 - (32.3)
21.16 45
7 180 Håvard  Bøkko NOR NOR 13:24.59400m - 35.55 - (35.5)
800m - 1:07.57 - (32.0)
1200m - 1:39.83 - (32.2)
1600m - 2:11.44 - (31.6)
2000m - 2:43.19 - (31.7)
2400m - 3:14.79 - (31.6)
2800m - 3:46.84 - (32.0)
3200m - 4:18.30 - (31.4)
3600m - 4:50.09 - (31.7)
4000m - 5:21.83 - (31.7)
4400m - 5:53.76 - (31.9)
4800m - 6:25.45 - (31.6)
5200m - 6:57.39 - (31.9)
5600m - 7:29.04 - (31.6)
6000m - 8:00.86 - (31.8)
6400m - 8:32.61 - (31.7)
6800m - 9:04.43 - (31.8)
7200m - 9:36.17 - (31.7)
7600m - 10:08.24 - (32.0)
8000m - 10:40.31 - (32.0)
8400m - 11:12.99 - (32.6)
8800m - 11:45.59 - (32.6)
9200m - 12:18.46 - (32.8)
9600m - 12:51.44 - (32.9)
10000m - 13:24.59 - (33.1)
22.21 40
8 126 Moritz  Geisreiter GER GER 13:26.52400m - 2:13.53 - (33.5)
800m - 1:08.40 - (32.4)
1200m - 1:40.99 - (32.5)
1600m - 2:13.53 - (32.5)
2000m - 2:45.24 - (31.7)
2400m - 3:16.74 - (31.5)
2800m - 3:48.25 - (31.5)
3200m - 4:19.98 - (31.7)
3600m - 4:51.50 - (31.5)
4000m - 5:23.35 - (31.8)
4400m - 5:55.06 - (31.7)
4800m - 6:26.85 - (31.7)
5200m - 6:58.71 - (31.8)
5600m - 7:30.35 - (31.6)
6000m - 8:02.29 - (31.9)
6400m - 8:34.21 - (31.9)
6800m - 9:06.09 - (31.8)
7200m - 9:38.27 - (32.1)
7600m - 10:10.39 - (32.1)
8000m - 10:42.90 - (32.5)
8400m - 11:15.72 - (32.8)
8800m - 11:48.28 - (32.5)
9200m - 12:21.19 - (32.9)
9600m - 12:54.14 - (32.9)
10000m - 13:26.52 - (32.3)
24.14 35
9 206 Daniil  Sinitsyn RUS RUS 13:26.74400m - 36.31 - (36.3)
800m - 1:08.31 - (32.0)
1200m - 1:39.85 - (31.5)
1600m - 2:11.85 - (32.0)
2000m - 2:43.21 - (31.3)
2400m - 3:14.95 - (31.7)
2800m - 3:45.98 - (31.0)
3200m - 4:17.66 - (31.6)
3600m - 4:49.45 - (31.7)
4000m - 5:21.27 - (31.8)
4400m - 5:52.87 - (31.6)
4800m - 6:24.40 - (31.5)
5200m - 6:55.85 - (31.4)
5600m - 7:27.48 - (31.6)
6000m - 7:59.24 - (31.7)
6400m - 8:31.10 - (31.8)
6800m - 9:03.48 - (32.3)
7200m - 9:36.09 - (32.6)
7600m - 10:09.03 - (32.9)
8000m - 10:42.48 - (33.4)
8400m - 11:15.81 - (33.3)
8800m - 11:49.15 - (33.3)
9200m - 12:21.81 - (32.6)
9600m - 12:54.46 - (32.6)
10000m - 13:26.74 - (32.2)
24.36 30
10 182 Sverre  Lunde Pedersen NOR NOR 13:27.87400m - 35.30 - (35.3)
800m - 1:07.28 - (31.9)
1200m - 1:39.50 - (32.2)
1600m - 2:11.71 - (32.2)
2000m - 2:43.79 - (32.0)
2400m - 3:15.96 - (32.1)
2800m - 3:47.83 - (31.8)
3200m - 4:20.13 - (32.3)
3600m - 4:52.20 - (32.0)
4000m - 5:24.53 - (32.3)
4400m - 5:56.67 - (32.1)
4800m - 6:29.00 - (32.3)
5200m - 7:01.29 - (32.2)
5600m - 7:33.73 - (32.4)
6000m - 8:05.77 - (32.0)
6400m - 8:37.13 - (31.3)
6800m - 9:09.01 - (31.8)
7200m - 9:40.98 - (31.9)
7600m - 10:12.70 - (31.7)
8000m - 10:44.55 - (31.8)
8400m - 11:16.57 - (32.0)
8800m - 11:48.85 - (32.2)
9200m - 12:21.30 - (32.4)
9600m - 12:54.26 - (32.9)
10000m - 13:27.87 - (33.6)
25.49 25
11 186 Shane  Dobbin NZL NZL 13:32.46400m - 35.22 - (35.2)
800m - 1:07.15 - (31.9)
1200m - 1:39.56 - (32.4)
1600m - 2:11.32 - (31.7)
2000m - 2:43.29 - (31.9)
2400m - 3:14.97 - (31.6)
2800m - 3:47.06 - (32.0)
3200m - 4:19.27 - (32.2)
3600m - 4:51.23 - (31.9)
4000m - 5:23.06 - (31.8)
4400m - 5:54.98 - (31.9)
4800m - 6:26.87 - (31.8)
5200m - 6:58.70 - (31.8)
5600m - 7:30.67 - (31.9)
6000m - 8:02.80 - (32.1)
6400m - 8:34.95 - (32.1)
6800m - 9:07.40 - (32.4)
7200m - 9:39.57 - (32.1)
7600m - 10:11.69 - (32.1)
8000m - 10:44.10 - (32.4)
8400m - 11:16.93 - (32.8)
8800m - 11:49.87 - (32.9)
9200m - 12:23.14 - (33.2)
9600m - 12:57.37 - (34.2)
10000m - 13:32.46 - (35.0)
30.08 21
12 131 Marco  Weber GER GER 13:37.52400m - 36.09 - (36.0)
800m - 1:08.18 - (32.0)
1200m - 1:39.81 - (31.6)
1600m - 2:11.66 - (31.8)
2000m - 2:43.09 - (31.4)
2400m - 3:14.77 - (31.6)
2800m - 3:46.22 - (31.4)
3200m - 4:18.01 - (31.7)
3600m - 4:49.86 - (31.8)
4000m - 5:21.70 - (31.8)
4400m - 5:53.33 - (31.6)
4800m - 6:25.05 - (31.7)
5200m - 6:56.98 - (31.9)
5600m - 7:29.15 - (32.1)
6000m - 8:01.38 - (32.2)
6400m - 8:33.97 - (32.5)
6800m - 9:06.71 - (32.7)
7200m - 9:39.61 - (32.9)
7600m - 10:12.72 - (33.1)
8000m - 10:46.42 - (33.7)
8400m - 11:20.14 - (33.7)
8800m - 11:54.21 - (34.0)
9200m - 12:28.51 - (34.3)
9600m - 13:02.98 - (34.4)
10000m - 13:37.52 - (34.5)
35.14 18